Time,TemperatureF,DewpointF,PressureIn,WindDirection,WindDirectionDegrees,WindSpeedMPH,WindSpeedGustMPH,Humidity,HourlyPrecipIn,Conditions,Clouds,dailyrainin,SoftwareType,DateUTC
2013-05-20 00:02:00,63.8,62.0,30.16,North,350,0.0,1.0,94,0.00,,,0.00,WeatherCatV1.15B25,2013-05-20 04:02:00,
2013-05-20 00:07:00,63.8,62.0,30.16,North,350,0.0,1.0,94,0.00,,,0.00,WeatherCatV1.15B25,2013-05-20 04:07:00,
2013-05-20 00:12:00,63.8,61.7,30.16,North,350,0.0,1.0,93,0.00,,,0.00,WeatherCatV1.15B25,2013-05-20 04:12:00,
2013-05-20 00:17:00,63.8,61.7,30.15,ENE,58,0.0,2.0,93,0.00,,,0.00,WeatherCatV1.15B25,2013-05-20 04:17:00,
2013-05-20 00:22:00,63.8,61.7,30.15,NNE,16,0.0,0.0,93,0.00,,,0.00,WeatherCatV1.15B25,2013-05-20 04:22:00,
2013-05-20 00:27:00,63.7,61.6,30.15,NNE,16,0.0,0.0,93,0.00,,,0.00,WeatherCatV1.15B25,2013-05-20 04:27:00,
2013-05-20 00:32:00,63.7,61.6,30.15,NNE,16,0.0,0.0,93,0.00,,,0.00,WeatherCatV1.15B25,2013-05-20 04:32:00,
2013-05-20 00:37:00,63.4,61.3,30.14,NNE,16,0.0,0.0,93,0.00,,,0.00,WeatherCatV1.15B25,2013-05-20 04:37:00,
2013-05-20 00:42:00,63.3,61.5,30.14,NNE,16,0.0,1.0,94,0.00,,,0.00,WeatherCatV1.15B25,2013-05-20 04:42:00,
2013-05-20 00:47:00,63.1,61.3,30.15,NNE,16,0.0,0.0,94,0.00,,,0.00,WeatherCatV1.15B25,2013-05-20 04:47:00,
2013-05-20 00:52:00,62.9,61.1,30.15,NNE,16,0.0,0.0,94,0.00,,,0.00,WeatherCatV1.15B25,2013-05-20 04:52:00,
2013-05-20 00:57:00,62.7,60.9,30.16,NNE,16,0.0,0.0,94,0.00,,,0.00,WeatherCatV1.15B25,2013-05-20 04:57:00,
2013-05-20 01:02:00,62.5,60.7,30.15,NNE,16,0.0,0.0,94,0.00,,,0.00,WeatherCatV1.15B25,2013-05-20 05:02:00,
2013-05-20 01:07:00,62.3,60.8,30.15,NNE,16,0.0,0.0,95,0.00,,,0.00,WeatherCatV1.15B25,2013-05-20 05:07:00,
2013-05-20 01:12:00,62.1,60.6,30.16,NNE,16,0.0,0.0,95,0.00,,,0.00,WeatherCatV1.15B25,2013-05-20 05:12:00,
2013-05-20 01:17:00,62.1,60.6,30.15,NNE,16,0.0,0.0,95,0.00,,,0.00,WeatherCatV1.15B25,2013-05-20 05:17:00,
2013-05-20 01:22:00,61.9,60.4,30.16,NNE,16,0.0,0.0,95,0.00,,,0.00,WeatherCatV1.15B25,2013-05-20 05:22:00,
2013-05-20 01:27:00,61.7,60.2,30.15,NNE,16,0.0,0.0,95,0.00,,,0.00,WeatherCatV1.15B25,2013-05-20 05:27:00,
2013-05-20 01:32:00,61.5,60.1,30.15,NNE,16,0.0,0.0,95,0.00,,,0.00,WeatherCatV1.15B25,2013-05-20 05:32:00,
2013-05-20 01:37:00,61.3,59.9,30.16,NNE,16,0.0,0.0,95,0.00,,,0.00,WeatherCatV1.15B25,2013-05-20 05:37:00,
2013-05-20 01:42:00,61.2,59.8,30.16,NNE,16,0.0,0.0,95,0.00,,,0.00,WeatherCatV1.15B25,2013-05-20 05:42:00,
2013-05-20 01:47:00,61.2,60.0,30.16,WSW,254,0.0,3.0,96,0.00,,,0.00,WeatherCatV1.15B25,2013-05-20 05:47:00,
2013-05-20 01:52:00,61.2,60.0,30.16,WSW,254,0.0,0.0,96,0.00,,,0.00,WeatherCatV1.15B25,2013-05-20 05:52:00,
2013-05-20 01:57:00,61.2,60.3,30.16,WSW,254,0.0,0.0,97,0.00,,,0.00,WeatherCatV1.15B25,2013-05-20 05:57:00,
2013-05-20 02:02:00,61.3,60.4,30.16,West,261,0.0,0.0,97,0.00,,,0.00,WeatherCatV1.15B25,2013-05-20 06:02:00,
2013-05-20 02:07:00,61.3,60.4,30.15,South,170,0.0,0.0,97,0.00,,,0.00,WeatherCatV1.15B25,2013-05-20 06:07:00,
2013-05-20 02:12:00,61.3,60.4,30.15,South,170,0.0,0.0,97,0.00,,,0.00,WeatherCatV1.15B25,2013-05-20 06:12:00,
2013-05-20 02:17:00,61.2,60.3,30.16,South,170,0.0,0.0,97,0.00,,,0.00,WeatherCatV1.15B25,2013-05-20 06:17:00,
2013-05-20 02:22:00,61.2,60.3,30.16,South,169,0.0,0.0,97,0.00,,,0.00,WeatherCatV1.15B25,2013-05-20 06:22:00,
2013-05-20 02:27:00,61.2,60.3,30.16,South,169,0.0,0.0,97,0.00,,,0.00,WeatherCatV1.15B25,2013-05-20 06:27:00,
2013-05-20 02:32:00,61.2,60.3,30.16,South,169,0.0,0.0,97,0.00,,,0.00,WeatherCatV1.15B25,2013-05-20 06:32:00,
2013-05-20 02:37:00,61.3,60.4,30.15,NE,53,0.0,2.0,97,0.00,,,0.00,WeatherCatV1.15B25,2013-05-20 06:37:00,
2013-05-20 02:42:00,61.4,60.5,30.15,NE,53,0.0,1.0,97,0.00,,,0.00,WeatherCatV1.15B25,2013-05-20 06:42:00,
2013-05-20 02:47:00,61.5,60.6,30.15,NE,53,0.0,0.0,97,0.00,,,0.00,WeatherCatV1.15B25,2013-05-20 06:47:00,
2013-05-20 02:52:00,61.5,60.6,30.15,NE,53,0.0,0.0,97,0.00,,,0.00,WeatherCatV1.15B25,2013-05-20 06:52:00,
2013-05-20 02:57:00,61.5,60.6,30.15,NE,53,0.0,0.0,97,0.00,,,0.00,WeatherCatV1.15B25,2013-05-20 06:57:00,
2013-05-20 03:02:00,61.5,60.6,30.15,NE,53,0.0,0.0,97,0.00,,,0.00,WeatherCatV1.15B25,2013-05-20 07:02:00,
2013-05-20 03:07:00,61.5,60.6,30.15,NE,53,0.0,0.0,97,0.00,,,0.00,WeatherCatV1.15B25,2013-05-20 07:07:00,
2013-05-20 03:12:00,61.4,60.5,30.15,NE,53,0.0,0.0,97,0.00,,,0.00,WeatherCatV1.15B25,2013-05-20 07:12:00,
2013-05-20 03:17:00,61.3,60.4,30.15,NE,53,0.0,0.0,97,0.00,,,0.00,WeatherCatV1.15B25,2013-05-20 07:17:00,
2013-05-20 03:22:00,61.1,59.9,30.15,NE,53,0.0,0.0,96,0.00,,,0.00,WeatherCatV1.15B25,2013-05-20 07:22:00,
2013-05-20 03:27:00,61.0,59.8,30.15,NE,53,0.0,0.0,96,0.00,,,0.00,WeatherCatV1.15B25,2013-05-20 07:27:00,
2013-05-20 03:32:00,60.9,60.0,30.16,NE,53,0.0,2.0,97,0.00,,,0.00,WeatherCatV1.15B25,2013-05-20 07:32:00,
2013-05-20 03:37:00,60.9,60.0,30.16,NE,53,0.0,0.0,97,0.00,,,0.00,WeatherCatV1.15B25,2013-05-20 07:37:00,
2013-05-20 03:42:00,60.9,60.0,30.16,NE,53,0.0,0.0,97,0.00,,,0.00,WeatherCatV1.15B25,2013-05-20 07:42:00,
2013-05-20 03:47:00,60.9,60.0,30.16,NE,53,0.0,0.0,97,0.00,,,0.00,WeatherCatV1.15B25,2013-05-20 07:47:00,
2013-05-20 03:52:00,60.8,59.9,30.15,NE,53,0.0,0.0,97,0.00,,,0.00,WeatherCatV1.15B25,2013-05-20 07:52:00,
2013-05-20 03:57:00,60.7,59.8,30.16,NE,53,0.0,1.0,97,0.00,,,0.00,WeatherCatV1.15B25,2013-05-20 07:57:00,
2013-05-20 04:02:00,60.6,59.7,30.16,NE,53,0.0,0.0,97,0.00,,,0.00,WeatherCatV1.15B25,2013-05-20 08:02:00,
2013-05-20 04:07:00,60.6,59.7,30.16,NE,53,0.0,0.0,97,0.00,,,0.00,WeatherCatV1.15B25,2013-05-20 08:07:00,
2013-05-20 04:12:00,60.6,59.7,30.15,NE,53,0.0,0.0,97,0.00,,,0.00,WeatherCatV1.15B25,2013-05-20 08:12:00,
2013-05-20 04:17:00,60.7,59.8,30.15,NE,53,0.0,0.0,97,0.00,,,0.00,WeatherCatV1.15B25,2013-05-20 08:17:00,
2013-05-20 04:22:00,60.6,59.7,30.16,NE,53,0.0,0.0,97,0.00,,,0.00,WeatherCatV1.15B25,2013-05-20 08:22:00,
2013-05-20 04:27:00,60.6,59.7,30.16,NE,53,0.0,0.0,97,0.00,,,0.00,WeatherCatV1.15B25,2013-05-20 08:27:00,
2013-05-20 04:32:00,60.7,59.8,30.15,NE,53,0.0,0.0,97,0.00,,,0.00,WeatherCatV1.15B25,2013-05-20 08:32:00,
2013-05-20 04:37:00,60.7,60.1,30.15,NE,53,0.0,0.0,98,0.00,,,0.00,WeatherCatV1.15B25,2013-05-20 08:37:00,
2013-05-20 04:42:00,60.7,60.1,30.15,NE,53,0.0,0.0,98,0.00,,,0.00,WeatherCatV1.15B25,2013-05-20 08:42:00,
2013-05-20 04:47:00,60.7,59.8,30.15,NE,53,0.0,0.0,97,0.00,,,0.00,WeatherCatV1.15B25,2013-05-20 08:47:00,
2013-05-20 04:52:00,60.7,59.8,30.16,NE,53,0.0,1.0,97,0.00,,,0.00,WeatherCatV1.15B25,2013-05-20 08:52:00,
2013-05-20 04:57:00,60.7,59.8,30.16,NE,53,0.0,0.0,97,0.00,,,0.00,WeatherCatV1.15B25,2013-05-20 08:57:00,
2013-05-20 05:02:00,60.6,59.7,30.16,NE,53,0.0,0.0,97,0.00,,,0.00,WeatherCatV1.15B25,2013-05-20 09:02:00,
2013-05-20 05:07:00,60.7,59.8,30.16,NE,53,0.0,0.0,97,0.00,,,0.00,WeatherCatV1.15B25,2013-05-20 09:07:00,
2013-05-20 05:12:00,60.7,59.8,30.15,NE,53,0.0,0.0,97,0.00,,,0.00,WeatherCatV1.15B25,2013-05-20 09:12:00,
2013-05-20 05:17:00,60.7,59.8,30.15,NE,53,0.0,0.0,97,0.00,,,0.00,WeatherCatV1.15B25,2013-05-20 09:17:00,
2013-05-20 05:22:00,60.7,60.1,30.16,NE,53,0.0,0.0,98,0.00,,,0.00,WeatherCatV1.15B25,2013-05-20 09:22:00,
2013-05-20 05:27:00,60.7,60.1,30.15,NE,53,0.0,0.0,98,0.00,,,0.00,WeatherCatV1.15B25,2013-05-20 09:27:00,
2013-05-20 05:32:00,60.7,59.8,30.15,NE,53,0.0,0.0,97,0.00,,,0.00,WeatherCatV1.15B25,2013-05-20 09:32:00,
2013-05-20 05:37:00,60.7,60.1,30.15,NE,53,0.0,0.0,98,0.00,,,0.00,WeatherCatV1.15B25,2013-05-20 09:37:00,
2013-05-20 05:42:00,60.8,59.9,30.15,NE,53,0.0,0.0,97,0.00,,,0.00,WeatherCatV1.15B25,2013-05-20 09:42:00,
2013-05-20 05:47:00,60.7,59.8,30.15,NE,53,0.0,1.0,97,0.00,,,0.00,WeatherCatV1.15B25,2013-05-20 09:47:00,
2013-05-20 05:52:00,60.7,59.8,30.15,NE,53,0.0,0.0,97,0.00,,,0.00,WeatherCatV1.15B25,2013-05-20 09:52:00,
2013-05-20 05:57:00,60.7,59.8,30.16,NE,53,0.0,0.0,97,0.00,,,0.00,WeatherCatV1.15B25,2013-05-20 09:57:00,
2013-05-20 06:02:00,60.6,59.7,30.16,NE,53,0.0,0.0,97,0.00,,,0.00,WeatherCatV1.15B25,2013-05-20 10:02:00,
2013-05-20 06:07:00,60.5,59.6,30.17,NE,53,0.0,0.0,97,0.00,,,0.00,WeatherCatV1.15B25,2013-05-20 10:07:00,
2013-05-20 06:12:00,60.5,59.6,30.17,NE,53,0.0,0.0,97,0.00,,,0.00,WeatherCatV1.15B25,2013-05-20 10:12:00,
2013-05-20 06:17:00,60.4,59.5,30.16,NE,53,0.0,0.0,97,0.00,,,0.00,WeatherCatV1.15B25,2013-05-20 10:17:00,
2013-05-20 06:22:00,60.4,59.5,30.16,NE,53,0.0,0.0,97,0.00,,,0.00,WeatherCatV1.15B25,2013-05-20 10:22:00,
2013-05-20 06:27:00,60.3,59.4,30.16,NE,53,0.0,0.0,97,0.00,,,0.00,WeatherCatV1.15B25,2013-05-20 10:27:00,
2013-05-20 06:32:00,60.3,59.4,30.17,NE,53,0.0,0.0,97,0.00,,,0.00,WeatherCatV1.15B25,2013-05-20 10:32:00,
2013-05-20 06:37:00,60.2,59.3,30.17,NE,53,0.0,0.0,97,0.00,,,0.00,WeatherCatV1.15B25,2013-05-20 10:37:00,
2013-05-20 06:42:00,60.2,59.6,30.17,ENE,62,0.0,0.0,98,0.00,,,0.00,WeatherCatV1.15B25,2013-05-20 10:42:00,
2013-05-20 06:47:00,60.2,59.6,30.17,ENE,62,0.0,0.0,98,0.00,,,0.00,WeatherCatV1.15B25,2013-05-20 10:47:00,
2013-05-20 06:52:00,60.2,59.3,30.18,ENE,62,0.0,0.0,97,0.00,,,0.00,WeatherCatV1.15B25,2013-05-20 10:52:00,
2013-05-20 06:57:00,60.1,59.2,30.18,ENE,62,0.0,0.0,97,0.00,,,0.00,WeatherCatV1.15B25,2013-05-20 10:57:00,
2013-05-20 07:02:00,60.1,59.2,30.18,East,89,0.0,2.0,97,0.00,,,0.00,WeatherCatV1.15B25,2013-05-20 11:02:00,
2013-05-20 07:07:00,60.0,59.1,30.18,ENE,78,0.0,0.0,97,0.00,,,0.00,WeatherCatV1.15B25,2013-05-20 11:07:00,
2013-05-20 07:12:00,60.0,59.1,30.18,SSE,155,1.0,1.0,97,0.00,,,0.00,WeatherCatV1.15B25,2013-05-20 11:12:00,
2013-05-20 07:17:00,60.0,59.1,30.18,NE,53,0.0,1.0,97,0.00,,,0.00,WeatherCatV1.15B25,2013-05-20 11:17:00,
2013-05-20 07:22:00,59.9,59.0,30.18,NE,53,0.0,0.0,97,0.00,,,0.00,WeatherCatV1.15B25,2013-05-20 11:22:00,
2013-05-20 07:27:00,59.9,59.0,30.18,NE,53,0.0,0.0,97,0.00,,,0.00,WeatherCatV1.15B25,2013-05-20 11:27:00,
2013-05-20 07:32:00,60.0,59.4,30.18,NE,53,0.0,0.0,98,0.00,,,0.00,WeatherCatV1.15B25,2013-05-20 11:32:00,
2013-05-20 07:37:00,60.0,59.4,30.19,NE,53,0.0,0.0,98,0.00,,,0.00,WeatherCatV1.15B25,2013-05-20 11:37:00,
2013-05-20 07:42:00,60.2,59.6,30.18,NE,53,0.0,0.0,98,0.00,,,0.00,WeatherCatV1.15B25,2013-05-20 11:42:00,
2013-05-20 07:47:00,60.2,59.6,30.18,NE,53,0.0,0.0,98,0.00,,,0.00,WeatherCatV1.15B25,2013-05-20 11:47:00,
2013-05-20 07:52:00,60.4,59.8,30.18,NE,53,0.0,0.0,98,0.00,,,0.00,WeatherCatV1.15B25,2013-05-20 11:52:00,
2013-05-20 07:57:00,60.4,59.8,30.18,NE,53,0.0,0.0,98,0.00,,,0.00,WeatherCatV1.15B25,2013-05-20 11:57:00,
2013-05-20 08:02:00,60.6,60.0,30.18,NE,53,0.0,0.0,98,0.00,,,0.00,WeatherCatV1.15B25,2013-05-20 12:02:00,
2013-05-20 08:07:00,60.8,60.2,30.18,NE,53,0.0,0.0,98,0.00,,,0.00,WeatherCatV1.15B25,2013-05-20 12:07:00,
2013-05-20 08:12:00,60.9,60.3,30.18,NE,38,1.0,1.0,98,0.00,,,0.00,WeatherCatV1.15B25,2013-05-20 12:12:00,
2013-05-20 08:17:00,61.1,60.5,30.18,NE,39,0.0,2.0,98,0.00,,,0.00,WeatherCatV1.15B25,2013-05-20 12:17:00,
2013-05-20 08:22:00,61.2,60.6,30.18,NE,38,0.0,0.0,98,0.00,,,0.00,WeatherCatV1.15B25,2013-05-20 12:22:00,
2013-05-20 08:27:00,61.3,60.7,30.19,NE,39,0.0,1.0,98,0.00,,,0.00,WeatherCatV1.15B25,2013-05-20 12:27:00,
2013-05-20 08:32:00,61.5,60.9,30.19,NE,39,0.0,0.0,98,0.00,,,0.00,WeatherCatV1.15B25,2013-05-20 12:32:00,
2013-05-20 08:37:00,61.7,61.1,30.19,NE,38,0.0,0.0,98,0.00,,,0.00,WeatherCatV1.15B25,2013-05-20 12:37:00,
2013-05-20 08:42:00,62.0,61.4,30.19,NE,39,0.0,0.0,98,0.00,,,0.00,WeatherCatV1.15B25,2013-05-20 12:42:00,
2013-05-20 08:47:00,62.1,61.5,30.19,NE,38,0.0,0.0,98,0.00,,,0.00,WeatherCatV1.15B25,2013-05-20 12:47:00,
2013-05-20 08:52:00,62.4,61.5,30.19,NE,39,0.0,0.0,97,0.00,,,0.00,WeatherCatV1.15B25,2013-05-20 12:52:00,
2013-05-20 08:57:00,62.6,61.7,30.20,NE,38,0.0,0.0,97,0.00,,,0.00,WeatherCatV1.15B25,2013-05-20 12:57:00,
2013-05-20 09:02:00,62.7,61.5,30.20,NE,39,0.0,1.0,96,0.00,,,0.00,WeatherCatV1.15B25,2013-05-20 13:02:00,
2013-05-20 09:07:00,62.9,61.7,30.20,NE,39,0.0,0.0,96,0.00,,,0.00,WeatherCatV1.15B25,2013-05-20 13:07:00,
2013-05-20 09:12:00,63.2,62.3,30.20,NE,38,0.0,1.0,97,0.00,,,0.00,WeatherCatV1.15B25,2013-05-20 13:12:00,
2013-05-20 09:17:00,63.5,62.3,30.20,NE,40,0.0,1.0,96,0.00,,,0.00,WeatherCatV1.15B25,2013-05-20 13:17:00,
2013-05-20 09:22:00,63.8,62.3,30.20,ESE,109,0.0,1.0,95,0.00,,,0.00,WeatherCatV1.15B25,2013-05-20 13:22:00,
2013-05-20 09:27:00,63.8,62.0,30.20,East,82,0.0,2.0,94,0.00,,,0.00,WeatherCatV1.15B25,2013-05-20 13:27:00,
2013-05-20 09:32:00,63.8,62.0,30.20,East,98,0.0,0.0,94,0.00,,,0.00,WeatherCatV1.15B25,2013-05-20 13:32:00,
2013-05-20 09:37:00,63.8,62.0,30.20,East,98,0.0,0.0,94,0.00,,,0.00,WeatherCatV1.15B25,2013-05-20 13:37:00,
2013-05-20 09:42:00,64.1,62.0,30.21,East,92,0.0,2.0,93,0.00,,,0.00,WeatherCatV1.15B25,2013-05-20 13:42:00,
2013-05-20 09:47:00,64.4,62.3,30.21,East,92,0.0,1.0,93,0.00,,,0.00,WeatherCatV1.15B25,2013-05-20 13:47:00,
2013-05-20 09:52:00,65.2,63.1,30.21,SSE,148,2.0,2.0,93,0.00,,,0.00,WeatherCatV1.15B25,2013-05-20 13:52:00,
2013-05-20 09:57:00,65.8,63.4,30.20,SSW,213,0.0,1.0,92,0.00,,,0.00,WeatherCatV1.15B25,2013-05-20 13:57:00,
2013-05-20 10:02:00,66.3,63.3,30.20,SW,229,0.0,0.0,90,0.00,,,0.00,WeatherCatV1.15B25,2013-05-20 14:02:00,
2013-05-20 10:07:00,66.7,63.3,30.21,SSE,163,0.0,3.0,89,0.00,,,0.00,WeatherCatV1.15B25,2013-05-20 14:07:00,
2013-05-20 10:12:00,67.2,63.8,30.20,SSE,154,0.0,0.0,89,0.00,,,0.00,WeatherCatV1.15B25,2013-05-20 14:12:00,
2013-05-20 10:17:00,67.7,64.0,30.20,SSE,159,0.0,3.0,88,0.00,,,0.00,WeatherCatV1.15B25,2013-05-20 14:17:00,
2013-05-20 10:22:00,68.1,64.4,30.20,SW,214,0.0,1.0,88,0.00,,,0.00,WeatherCatV1.15B25,2013-05-20 14:22:00,
2013-05-20 10:27:00,68.3,63.9,30.20,SW,217,0.0,0.0,86,0.00,,,0.00,WeatherCatV1.15B25,2013-05-20 14:27:00,
2013-05-20 10:32:00,68.7,64.0,30.20,SW,217,0.0,0.0,85,0.00,,,0.00,WeatherCatV1.15B25,2013-05-20 14:32:00,
2013-05-20 10:37:00,69.6,64.9,30.20,SW,216,0.0,0.0,85,0.00,,,0.00,WeatherCatV1.15B25,2013-05-20 14:37:00,
2013-05-20 10:42:00,70.1,65.0,30.20,SW,223,0.0,2.0,84,0.00,,,0.00,WeatherCatV1.15B25,2013-05-20 14:42:00,
2013-05-20 10:47:00,70.2,64.4,30.20,SW,220,3.0,3.0,82,0.00,,,0.00,WeatherCatV1.15B25,2013-05-20 14:47:00,
2013-05-20 10:52:00,69.9,64.5,30.20,SW,233,1.0,3.0,83,0.00,,,0.00,WeatherCatV1.15B25,2013-05-20 14:52:00,
2013-05-20 10:57:00,69.9,64.5,30.20,SW,233,3.0,3.0,83,0.00,,,0.00,WeatherCatV1.15B25,2013-05-20 14:57:00,
2013-05-20 11:02:00,70.1,65.0,30.21,SW,226,2.0,3.0,84,0.00,,,0.00,WeatherCatV1.15B25,2013-05-20 15:02:00,
2013-05-20 11:07:00,70.3,65.2,30.20,SW,227,0.0,1.0,84,0.00,,,0.00,WeatherCatV1.15B25,2013-05-20 15:07:00,
2013-05-20 11:12:00,70.9,66.2,30.20,SW,228,2.0,2.0,85,0.00,,,0.00,WeatherCatV1.15B25,2013-05-20 15:12:00,
2013-05-20 11:17:00,71.6,65.1,30.20,East,94,1.0,3.0,80,0.00,,,0.00,WeatherCatV1.15B25,2013-05-20 15:17:00,
2013-05-20 11:22:00,72.3,65.4,30.20,SW,221,0.0,2.0,79,0.00,,,0.00,WeatherCatV1.15B25,2013-05-20 15:22:00,
2013-05-20 11:27:00,72.8,65.5,30.20,WSW,238,0.0,1.0,78,0.00,,,0.00,WeatherCatV1.15B25,2013-05-20 15:27:00,
2013-05-20 11:32:00,73.3,64.5,30.20,WSW,253,1.0,3.0,74,0.00,,,0.00,WeatherCatV1.15B25,2013-05-20 15:32:00,
2013-05-20 11:37:00,73.7,65.7,30.20,SSW,210,1.0,1.0,76,0.00,,,0.00,WeatherCatV1.15B25,2013-05-20 15:37:00,
2013-05-20 11:42:00,74.2,65.8,30.20,ESE,107,2.0,6.0,75,0.00,,,0.00,WeatherCatV1.15B25,2013-05-20 15:42:00,
2013-05-20 11:47:00,74.6,64.2,30.20,SSW,202,0.0,1.0,70,0.00,,,0.00,WeatherCatV1.15B25,2013-05-20 15:47:00,
2013-05-20 11:52:00,74.9,64.4,30.20,WSW,242,0.0,2.0,70,0.00,,,0.00,WeatherCatV1.15B25,2013-05-20 15:52:00,
2013-05-20 11:57:00,75.4,64.9,30.20,SW,232,0.0,2.0,70,0.00,,,0.00,WeatherCatV1.15B25,2013-05-20 15:57:00,
2013-05-20 12:02:00,75.9,64.6,30.20,West,268,0.0,2.0,68,0.00,,,0.00,WeatherCatV1.15B25,2013-05-20 16:02:00,
2013-05-20 12:07:00,76.0,64.7,30.20,SSE,163,1.0,2.0,68,0.00,,,0.00,WeatherCatV1.15B25,2013-05-20 16:07:00,
2013-05-20 12:12:00,76.0,64.2,30.20,South,171,1.0,3.0,67,0.00,,,0.00,WeatherCatV1.15B25,2013-05-20 16:12:00,
2013-05-20 12:17:00,76.2,62.7,30.20,ENE,69,0.0,3.0,63,0.00,,,0.00,WeatherCatV1.15B25,2013-05-20 16:17:00,
2013-05-20 12:22:00,76.6,65.2,30.20,South,190,0.0,1.0,68,0.00,,,0.00,WeatherCatV1.15B25,2013-05-20 16:22:00,
2013-05-20 12:27:00,76.9,64.7,30.20,SSE,150,1.0,2.0,66,0.00,,,0.00,WeatherCatV1.15B25,2013-05-20 16:27:00,
2013-05-20 12:32:00,77.3,64.6,30.19,East,82,0.0,1.0,65,0.00,,,0.00,WeatherCatV1.15B25,2013-05-20 16:32:00,
2013-05-20 12:37:00,77.5,63.0,30.19,NNE,28,4.0,7.0,61,0.00,,,0.00,WeatherCatV1.15B25,2013-05-20 16:37:00,
2013-05-20 12:42:00,77.4,63.3,30.19,SSW,206,4.0,6.0,62,0.00,,,0.00,WeatherCatV1.15B25,2013-05-20 16:42:00,
2013-05-20 12:47:00,77.3,63.7,30.19,South,189,2.0,3.0,63,0.00,,,0.00,WeatherCatV1.15B25,2013-05-20 16:47:00,
2013-05-20 12:52:00,77.4,62.4,30.19,SW,236,1.0,7.0,60,0.00,,,0.00,WeatherCatV1.15B25,2013-05-20 16:52:00,
2013-05-20 12:57:00,77.5,63.9,30.18,SSW,197,0.0,4.0,63,0.00,,,0.00,WeatherCatV1.15B25,2013-05-20 16:57:00,
2013-05-20 13:02:00,78.0,63.0,30.18,SW,216,2.0,7.0,60,0.00,,,0.00,WeatherCatV1.15B25,2013-05-20 17:02:00,
2013-05-20 13:12:00,78.4,63.8,30.18,SSW,205,0.0,3.0,61,0.00,,,0.00,WeatherCatV1.15B25,2013-05-20 17:12:00,
2013-05-20 13:17:00,79.0,62.9,30.18,WSW,252,4.0,5.0,58,0.00,,,0.00,WeatherCatV1.15B25,2013-05-20 17:17:00,
2013-05-20 13:22:00,79.0,62.9,30.18,NW,305,0.0,4.0,58,0.00,,,0.00,WeatherCatV1.15B25,2013-05-20 17:22:00,
2013-05-20 13:27:00,78.9,62.8,30.18,South,169,5.0,8.0,58,0.00,,,0.00,WeatherCatV1.15B25,2013-05-20 17:27:00,
2013-05-20 13:32:00,78.6,62.1,30.18,SW,231,0.0,2.0,57,0.00,,,0.00,WeatherCatV1.15B25,2013-05-20 17:32:00,
2013-05-20 13:37:00,78.8,62.8,30.18,South,188,2.0,4.0,58,0.00,,,0.00,WeatherCatV1.15B25,2013-05-20 17:37:00,
2013-05-20 13:42:00,79.0,62.9,30.17,WSW,238,2.0,5.0,58,0.00,,,0.00,WeatherCatV1.15B25,2013-05-20 17:42:00,
2013-05-20 13:47:00,79.2,63.6,30.18,East,92,0.0,3.0,59,0.00,,,0.00,WeatherCatV1.15B25,2013-05-20 17:47:00,
2013-05-20 13:52:00,79.4,61.8,30.17,SSW,208,4.0,6.0,55,0.00,,,0.00,WeatherCatV1.15B25,2013-05-20 17:52:00,
2013-05-20 13:57:00,79.3,62.7,30.17,WSW,257,2.0,2.0,57,0.00,,,0.00,WeatherCatV1.15B25,2013-05-20 17:57:00,
2013-05-20 14:02:00,79.4,61.8,30.17,WSW,254,2.0,3.0,55,0.00,,,0.00,WeatherCatV1.15B25,2013-05-20 18:02:00,
2013-05-20 14:07:00,79.8,61.1,30.17,East,95,0.0,4.0,53,0.00,,,0.00,WeatherCatV1.15B25,2013-05-20 18:07:00,
2013-05-20 14:12:00,79.9,61.7,30.17,South,170,0.0,6.0,54,0.00,,,0.00,WeatherCatV1.15B25,2013-05-20 18:12:00,
2013-05-20 14:17:00,79.8,61.1,30.17,ENE,76,3.0,3.0,53,0.00,,,0.00,WeatherCatV1.15B25,2013-05-20 18:17:00,
2013-05-20 14:22:00,80.0,62.9,30.17,SE,145,1.0,2.0,56,0.00,,,0.00,WeatherCatV1.15B25,2013-05-20 18:22:00,
2013-05-20 14:27:00,80.4,63.2,30.17,ESE,113,2.0,2.0,56,0.00,,,0.00,WeatherCatV1.15B25,2013-05-20 18:27:00,
2013-05-20 14:32:00,80.6,62.4,30.16,South,169,1.0,2.0,54,0.00,,,0.00,WeatherCatV1.15B25,2013-05-20 18:32:00,
2013-05-20 14:37:00,80.5,63.3,30.17,SW,236,3.0,3.0,56,0.00,,,0.00,WeatherCatV1.15B25,2013-05-20 18:37:00,
2013-05-20 14:42:00,80.6,63.4,30.17,South,184,2.0,3.0,56,0.00,,,0.00,WeatherCatV1.15B25,2013-05-20 18:42:00,
2013-05-20 14:47:00,81.1,61.8,30.17,SSE,165,1.0,5.0,52,0.00,,,0.00,WeatherCatV1.15B25,2013-05-20 18:47:00,
2013-05-20 14:52:00,81.1,63.4,30.16,SW,225,0.0,3.0,55,0.00,,,0.00,WeatherCatV1.15B25,2013-05-20 18:52:00,
2013-05-20 14:57:00,81.3,62.0,30.16,SSE,159,2.0,7.0,52,0.00,,,0.00,WeatherCatV1.15B25,2013-05-20 18:57:00,
2013-05-20 15:02:00,81.0,62.2,30.16,NNE,16,2.0,5.0,53,0.00,,,0.00,WeatherCatV1.15B25,2013-05-20 19:02:00,
2013-05-20 15:07:00,81.2,62.4,30.16,ESE,111,0.0,1.0,53,0.00,,,0.00,WeatherCatV1.15B25,2013-05-20 19:07:00,
2013-05-20 15:12:00,81.9,63.6,30.15,SW,225,7.0,7.0,54,0.00,,,0.00,WeatherCatV1.15B25,2013-05-20 19:12:00,
2013-05-20 15:17:00,81.8,63.0,30.15,SSW,202,0.0,6.0,53,0.00,,,0.00,WeatherCatV1.15B25,2013-05-20 19:17:00,
2013-05-20 15:22:00,81.9,63.1,30.15,SSW,204,0.0,2.0,53,0.00,,,0.00,WeatherCatV1.15B25,2013-05-20 19:22:00,
2013-05-20 15:32:00,81.4,64.2,30.15,SW,219,3.0,4.0,56,0.00,,,0.00,WeatherCatV1.15B25,2013-05-20 19:32:00,
2013-05-20 15:37:00,81.6,63.3,30.15,South,171,0.0,3.0,54,0.00,,,0.00,WeatherCatV1.15B25,2013-05-20 19:37:00,
2013-05-20 15:42:00,82.1,63.2,30.15,East,81,1.0,5.0,53,0.00,,,0.00,WeatherCatV1.15B25,2013-05-20 19:42:00,
2013-05-20 15:47:00,82.6,62.6,30.14,SSW,196,3.0,4.0,51,0.00,,,0.00,WeatherCatV1.15B25,2013-05-20 19:47:00,
2013-05-20 15:52:00,82.7,63.3,30.14,ESE,122,1.0,2.0,52,0.00,,,0.00,WeatherCatV1.15B25,2013-05-20 19:52:00,
2013-05-20 15:57:00,82.2,63.9,30.14,South,173,2.0,7.0,54,0.00,,,0.00,WeatherCatV1.15B25,2013-05-20 19:57:00,
2013-05-20 16:02:00,82.2,64.4,30.14,SSW,207,2.0,4.0,55,0.00,,,0.00,WeatherCatV1.15B25,2013-05-20 20:02:00,
2013-05-20 16:07:00,82.4,63.0,30.14,SSW,207,2.0,4.0,52,0.00,,,0.00,WeatherCatV1.15B25,2013-05-20 20:07:00,
2013-05-20 16:12:00,82.4,63.5,30.14,SSE,168,1.0,2.0,53,0.00,,,0.00,WeatherCatV1.15B25,2013-05-20 20:12:00,
2013-05-20 16:17:00,82.4,64.6,30.14,SSW,199,2.0,3.0,55,0.00,,,0.00,WeatherCatV1.15B25,2013-05-20 20:17:00,
2013-05-20 16:22:00,82.6,63.2,30.15,ENE,73,1.0,4.0,52,0.00,,,0.00,WeatherCatV1.15B25,2013-05-20 20:22:00,
2013-05-20 16:27:00,82.2,63.3,30.14,NNE,23,2.0,4.0,53,0.00,,,0.00,WeatherCatV1.15B25,2013-05-20 20:27:00,
2013-05-20 16:32:00,82.5,63.1,30.14,SW,223,2.0,4.0,52,0.00,,,0.00,WeatherCatV1.15B25,2013-05-20 20:32:00,
2013-05-20 16:37:00,82.3,63.4,30.14,South,190,1.0,3.0,53,0.00,,,0.00,WeatherCatV1.15B25,2013-05-20 20:37:00,
2013-05-20 16:42:00,81.6,62.2,30.14,SW,217,0.0,2.0,52,0.00,,,0.00,WeatherCatV1.15B25,2013-05-20 20:42:00,
2013-05-20 16:47:00,80.8,62.6,30.14,South,178,2.0,4.0,54,0.00,,,0.00,WeatherCatV1.15B25,2013-05-20 20:47:00,
2013-05-20 16:52:00,80.2,63.6,30.14,SSW,205,0.0,0.0,57,0.00,,,0.00,WeatherCatV1.15B25,2013-05-20 20:52:00,
2013-05-20 16:57:00,79.9,63.3,30.14,SSW,211,0.0,0.0,57,0.00,,,0.00,WeatherCatV1.15B25,2013-05-20 20:57:00,
2013-05-20 17:02:00,80.0,62.9,30.14,South,169,0.0,2.0,56,0.00,,,0.00,WeatherCatV1.15B25,2013-05-20 21:02:00,
2013-05-20 17:07:00,79.9,62.8,30.14,South,172,0.0,1.0,56,0.00,,,0.00,WeatherCatV1.15B25,2013-05-20 21:07:00,
2013-05-20 17:12:00,80.3,65.1,30.14,South,188,0.0,1.0,60,0.00,,,0.00,WeatherCatV1.15B25,2013-05-20 21:12:00,
2013-05-20 17:17:00,81.0,62.8,30.14,SW,220,0.0,2.0,54,0.00,,,0.00,WeatherCatV1.15B25,2013-05-20 21:17:00,
2013-05-20 17:22:00,81.4,62.6,30.14,SSE,150,0.0,0.0,53,0.00,,,0.00,WeatherCatV1.15B25,2013-05-20 21:22:00,
2013-05-20 17:27:00,81.9,64.1,30.14,SSW,200,0.0,1.0,55,0.00,,,0.00,WeatherCatV1.15B25,2013-05-20 21:27:00,
2013-05-20 17:32:00,82.1,63.8,30.14,South,186,1.0,1.0,54,0.00,,,0.00,WeatherCatV1.15B25,2013-05-20 21:32:00,
2013-05-20 17:37:00,82.1,64.8,30.14,WSW,242,0.0,1.0,56,0.00,,,0.00,WeatherCatV1.15B25,2013-05-20 21:37:00,
2013-05-20 17:42:00,82.1,62.7,30.14,NW,323,1.0,3.0,52,0.00,,,0.00,WeatherCatV1.15B25,2013-05-20 21:42:00,
2013-05-20 17:47:00,81.6,65.9,30.14,WNW,294,1.0,7.0,59,0.00,,,0.00,WeatherCatV1.15B25,2013-05-20 21:47:00,
2013-05-20 17:52:00,80.8,66.1,30.14,WSW,257,3.0,4.0,61,0.00,,,0.00,WeatherCatV1.15B25,2013-05-20 21:52:00,
2013-05-20 17:57:00,79.8,66.1,30.14,WSW,240,0.0,5.0,63,0.00,,,0.00,WeatherCatV1.15B25,2013-05-20 21:57:00,
2013-05-20 18:02:00,79.1,66.3,30.14,SSW,206,0.0,2.0,65,0.00,,,0.00,WeatherCatV1.15B25,2013-05-20 22:02:00,
2013-05-20 18:07:00,79.0,66.6,30.14,WSW,255,3.0,6.0,66,0.00,,,0.00,WeatherCatV1.15B25,2013-05-20 22:07:00,
2013-05-20 18:12:00,78.7,66.4,30.14,SW,219,3.0,3.0,66,0.00,,,0.00,WeatherCatV1.15B25,2013-05-20 22:12:00,
2013-05-20 18:17:00,78.4,65.6,30.14,West,262,0.0,1.0,65,0.00,,,0.00,WeatherCatV1.15B25,2013-05-20 22:17:00,
2013-05-20 18:22:00,78.1,65.8,30.14,WSW,252,3.0,3.0,66,0.00,,,0.00,WeatherCatV1.15B25,2013-05-20 22:22:00,
2013-05-20 18:27:00,77.5,65.7,30.14,WNW,285,2.0,7.0,67,0.00,,,0.00,WeatherCatV1.15B25,2013-05-20 22:27:00,
2013-05-20 18:32:00,77.0,65.2,30.14,West,265,1.0,2.0,67,0.00,,,0.00,WeatherCatV1.15B25,2013-05-20 22:32:00,
2013-05-20 18:37:00,76.7,65.7,30.14,NNW,329,0.0,2.0,69,0.00,,,0.00,WeatherCatV1.15B25,2013-05-20 22:37:00,
2013-05-20 18:42:00,76.6,66.1,30.13,South,191,0.0,2.0,70,0.00,,,0.00,WeatherCatV1.15B25,2013-05-20 22:42:00,
2013-05-20 18:47:00,76.6,65.6,30.13,WSW,242,0.0,4.0,69,0.00,,,0.00,WeatherCatV1.15B25,2013-05-20 22:47:00,
2013-05-20 18:52:00,76.3,65.4,30.13,West,277,0.0,3.0,69,0.00,,,0.00,WeatherCatV1.15B25,2013-05-20 22:52:00,
2013-05-20 18:57:00,76.0,65.1,30.13,West,276,0.0,7.0,69,0.00,,,0.00,WeatherCatV1.15B25,2013-05-20 22:57:00,
2013-05-20 19:02:00,75.7,65.2,30.13,SW,233,2.0,3.0,70,0.00,,,0.00,WeatherCatV1.15B25,2013-05-20 23:02:00,
2013-05-20 19:07:00,75.4,64.9,30.13,WSW,243,2.0,7.0,70,0.00,,,0.00,WeatherCatV1.15B25,2013-05-20 23:07:00,
2013-05-20 19:12:00,75.0,64.9,30.13,WSW,239,0.0,1.0,71,0.00,,,0.00,WeatherCatV1.15B25,2013-05-20 23:12:00,
2013-05-20 19:17:00,74.9,64.8,30.13,SW,217,6.0,8.0,71,0.00,,,0.00,WeatherCatV1.15B25,2013-05-20 23:17:00,
2013-05-20 19:22:00,74.5,64.9,30.13,West,276,3.0,3.0,72,0.00,,,0.00,WeatherCatV1.15B25,2013-05-20 23:22:00,
2013-05-20 19:27:00,74.2,65.0,30.13,WSW,238,0.0,4.0,73,0.00,,,0.00,WeatherCatV1.15B25,2013-05-20 23:27:00,
2013-05-20 19:32:00,74.0,64.8,30.13,NW,305,0.0,3.0,73,0.00,,,0.00,WeatherCatV1.15B25,2013-05-20 23:32:00,
2013-05-20 19:37:00,73.9,64.7,30.13,West,261,0.0,2.0,73,0.00,,,0.00,WeatherCatV1.15B25,2013-05-20 23:37:00,
2013-05-20 19:42:00,73.7,64.9,30.12,West,269,0.0,0.0,74,0.00,,,0.00,WeatherCatV1.15B25,2013-05-20 23:42:00,
2013-05-20 19:47:00,73.7,65.3,30.12,West,261,0.0,0.0,75,0.00,,,0.00,WeatherCatV1.15B25,2013-05-20 23:47:00,
2013-05-20 19:52:00,73.6,65.2,30.13,West,261,0.0,1.0,75,0.00,,,0.00,WeatherCatV1.15B25,2013-05-20 23:52:00,
2013-05-20 19:57:00,73.5,65.5,30.13,NW,315,1.0,2.0,76,0.00,,,0.00,WeatherCatV1.15B25,2013-05-20 23:57:00,
2013-05-20 20:02:00,73.3,64.5,30.13,NW,319,0.0,1.0,74,0.00,,,0.00,WeatherCatV1.15B25,2013-05-21 00:02:00,
2013-05-20 20:07:00,73.2,64.8,30.13,NW,319,0.0,1.0,75,0.00,,,0.00,WeatherCatV1.15B25,2013-05-21 00:07:00,
2013-05-20 20:12:00,73.1,65.1,30.13,ENE,73,0.0,0.0,76,0.00,,,0.00,WeatherCatV1.15B25,2013-05-21 00:12:00,
2013-05-20 20:17:00,72.9,64.5,30.13,WSW,248,1.0,2.0,75,0.00,,,0.00,WeatherCatV1.15B25,2013-05-21 00:17:00,
2013-05-20 20:22:00,72.6,64.6,30.13,WSW,248,0.0,0.0,76,0.00,,,0.00,WeatherCatV1.15B25,2013-05-21 00:22:00,
2013-05-20 20:27:00,72.4,64.8,30.13,WNW,288,1.0,1.0,77,0.00,,,0.00,WeatherCatV1.15B25,2013-05-21 00:27:00,
2013-05-20 20:32:00,72.2,64.9,30.14,WNW,288,0.0,0.0,78,0.00,,,0.00,WeatherCatV1.15B25,2013-05-21 00:32:00,
2013-05-20 20:37:00,71.9,64.7,30.14,ENE,71,0.0,1.0,78,0.00,,,0.00,WeatherCatV1.15B25,2013-05-21 00:37:00,
2013-05-20 20:42:00,71.7,64.5,30.14,ENE,71,0.0,0.0,78,0.00,,,0.00,WeatherCatV1.15B25,2013-05-21 00:42:00,
2013-05-20 20:47:00,71.5,64.3,30.14,ENE,70,0.0,0.0,78,0.00,,,0.00,WeatherCatV1.15B25,2013-05-21 00:47:00,
2013-05-20 20:52:00,71.3,64.1,30.14,WNW,300,0.0,1.0,78,0.00,,,0.00,WeatherCatV1.15B25,2013-05-21 00:52:00,
2013-05-20 20:57:00,71.2,64.3,30.14,WNW,300,0.0,0.0,79,0.00,,,0.00,WeatherCatV1.15B25,2013-05-21 00:57:00,
2013-05-20 21:02:00,70.9,64.4,30.14,North,0,0.0,0.0,80,0.00,,,0.00,WeatherCatV1.15B25,2013-05-21 01:02:00,
2013-05-20 21:07:00,70.7,63.5,30.14,ESE,103,1.0,3.0,78,0.00,,,0.00,WeatherCatV1.15B25,2013-05-21 01:07:00,
2013-05-20 21:12:00,70.5,64.0,30.14,ENE,61,0.0,0.0,80,0.00,,,0.00,WeatherCatV1.15B25,2013-05-21 01:12:00,
2013-05-20 21:17:00,70.3,64.2,30.14,NNE,17,0.0,0.0,81,0.00,,,0.00,WeatherCatV1.15B25,2013-05-21 01:17:00,
2013-05-20 21:22:00,70.1,63.6,30.14,NNE,17,0.0,0.0,80,0.00,,,0.00,WeatherCatV1.15B25,2013-05-21 01:22:00,
2013-05-20 21:27:00,69.8,63.3,30.14,NNE,17,0.0,1.0,80,0.00,,,0.00,WeatherCatV1.15B25,2013-05-21 01:27:00,
2013-05-20 21:32:00,69.5,63.4,30.14,NNE,17,0.0,1.0,81,0.00,,,0.00,WeatherCatV1.15B25,2013-05-21 01:32:00,
2013-05-20 21:37:00,69.2,63.8,30.14,NNE,17,0.0,0.0,83,0.00,,,0.00,WeatherCatV1.15B25,2013-05-21 01:37:00,
2013-05-20 21:42:00,68.9,63.2,30.14,NNE,17,0.0,0.0,82,0.00,,,0.00,WeatherCatV1.15B25,2013-05-21 01:42:00,
2013-05-20 21:47:00,68.7,63.7,30.14,NNE,17,0.0,0.0,84,0.00,,,0.00,WeatherCatV1.15B25,2013-05-21 01:47:00,
2013-05-20 21:52:00,68.5,63.5,30.14,NNE,17,0.0,0.0,84,0.00,,,0.00,WeatherCatV1.15B25,2013-05-21 01:52:00,
2013-05-20 21:57:00,68.3,63.3,30.15,NNE,17,0.0,0.0,84,0.00,,,0.00,WeatherCatV1.15B25,2013-05-21 01:57:00,
2013-05-20 22:02:00,68.1,63.1,30.15,NNE,17,0.0,2.0,84,0.00,,,0.00,WeatherCatV1.15B25,2013-05-21 02:02:00,
2013-05-20 22:07:00,67.9,63.2,30.15,North,0,0.0,3.0,85,0.00,,,0.00,WeatherCatV1.15B25,2013-05-21 02:07:00,
2013-05-20 22:12:00,67.9,63.5,30.15,ENE,57,0.0,2.0,86,0.00,,,0.00,WeatherCatV1.15B25,2013-05-21 02:12:00,
2013-05-20 22:17:00,67.8,63.5,30.15,NE,39,0.0,2.0,86,0.00,,,0.00,WeatherCatV1.15B25,2013-05-21 02:17:00,
2013-05-20 22:22:00,67.7,63.0,30.15,NE,43,0.0,0.0,85,0.00,,,0.00,WeatherCatV1.15B25,2013-05-21 02:22:00,
2013-05-20 22:27:00,67.8,62.8,30.15,ESE,102,0.0,4.0,84,0.00,,,0.00,WeatherCatV1.15B25,2013-05-21 02:27:00,
2013-05-20 22:32:00,68.0,63.0,30.15,ESE,104,0.0,2.0,84,0.00,,,0.00,WeatherCatV1.15B25,2013-05-21 02:32:00,
2013-05-20 22:37:00,68.2,62.8,30.15,East,92,0.0,3.0,83,0.00,,,0.00,WeatherCatV1.15B25,2013-05-21 02:37:00,
2013-05-20 22:42:00,68.3,63.3,30.16,NE,38,0.0,3.0,84,0.00,,,0.00,WeatherCatV1.15B25,2013-05-21 02:42:00,
2013-05-20 22:47:00,68.3,63.3,30.16,SSW,211,0.0,0.0,84,0.00,,,0.00,WeatherCatV1.15B25,2013-05-21 02:47:00,
2013-05-20 22:52:00,68.2,63.2,30.15,SSW,213,0.0,0.0,84,0.00,,,0.00,WeatherCatV1.15B25,2013-05-21 02:52:00,
2013-05-20 22:57:00,68.1,63.1,30.15,NNW,331,1.0,2.0,84,0.00,,,0.00,WeatherCatV1.15B25,2013-05-21 02:57:00,
2013-05-20 23:02:00,68.1,63.1,30.15,NNE,27,0.0,1.0,84,0.00,,,0.00,WeatherCatV1.15B25,2013-05-21 03:02:00,
2013-05-20 23:12:00,68.1,63.1,30.15,North,11,0.0,0.0,84,0.00,,,0.00,WeatherCatV1.15B25,2013-05-21 03:12:00,
2013-05-20 23:17:00,68.1,63.1,30.15,NW,325,0.0,1.0,84,0.00,,,0.00,WeatherCatV1.15B25,2013-05-21 03:17:00,
2013-05-20 23:22:00,68.0,63.0,30.15,NW,325,0.0,1.0,84,0.00,,,0.00,WeatherCatV1.15B25,2013-05-21 03:22:00,
2013-05-20 23:27:00,67.9,62.9,30.15,NNE,16,1.0,2.0,84,0.00,,,0.00,WeatherCatV1.15B25,2013-05-21 03:27:00,
2013-05-20 23:32:00,67.9,63.2,30.15,NNW,338,0.0,1.0,85,0.00,,,0.00,WeatherCatV1.15B25,2013-05-21 03:32:00,
2013-05-20 23:37:00,67.9,62.9,30.14,NNW,344,0.0,0.0,84,0.00,,,0.00,WeatherCatV1.15B25,2013-05-21 03:37:00,
2013-05-20 23:42:00,67.9,62.9,30.14,NNW,347,0.0,1.0,84,0.00,,,0.00,WeatherCatV1.15B25,2013-05-21 03:42:00,
2013-05-20 23:47:00,67.9,62.9,30.14,NNW,346,0.0,0.0,84,0.00,,,0.00,WeatherCatV1.15B25,2013-05-21 03:47:00,
2013-05-20 23:52:00,67.9,62.9,30.14,NNW,346,0.0,0.0,84,0.00,,,0.00,WeatherCatV1.15B25,2013-05-21 03:52:00,
2013-05-20 23:57:00,67.9,62.9,30.14,North,9,2.0,2.0,84,0.00,,,0.00,WeatherCatV1.15B25,2013-05-21 03:57:00,